CW4645 Weather Reports


time (UTC)temp
C
wind
direction
speed
KPH
gust
KPH
rain 1hr
cm
rain 24hr
cm
rain mn
cm
humidity
%
barometer
mb
20260505124416 16 32 0.0 0.0 0.00 0.00 0.00 85 1015.8
20260505123011 14 32 0.0 0.0 0.00 0.00 0.00 88 1015.8
20260505121425 13 54 0.0 0.0 0.00 0.00 0.00 89 1015.7
20260505115939 13 54 0.0 0.0 0.00 0.00 0.00 90 1015.5
20260505114425 12 54 0.0 0.0 0.00 0.00 0.00 91 1015.6
20260505112942 12 54 0.0 0.0 0.00 0.00 0.00 91 1015.5
20260505111425 11 54 0.0 0.0 0.00 0.00 0.00 91 1015.5
20260505101442 10 54 0.0 0.0 0.00 0.00 0.00 90 1015.0
20260505095921 11 54 0.0 0.0 0.00 0.00 0.00 90 1014.8
20260505094419 11 54 0.0 0.0 0.00 0.00 0.00 90 1014.7
20260505092923 11 54 0.0 0.0 0.00 0.00 0.00 89 1014.7
20260505091426 11 54 0.0 0.0 0.00 0.00 0.00 89 1014.8
20260505085939 12 54 0.0 0.0 0.00 0.00 0.00 88 1014.8
20260505084420 12 54 0.0 0.0 0.00 0.00 0.00 87 1014.7
20260505082933 12 54 0.0 0.0 0.00 0.00 0.00 86 1014.6
20260505081426 12 54 0.0 0.0 0.00 0.00 0.00 84 1014.6
20260505075934 13 54 0.0 0.0 0.00 0.00 0.00 83 1014.5
20260505074419 13 54 0.0 0.0 0.00 0.00 0.00 80 1014.5
20260505072916 14 54 0.0 0.0 0.00 0.00 0.00 78 1014.4
20260505071439 15 54 0.0 0.0 0.00 0.00 0.00 77 1014.4
20260505065927 15 54 0.0 0.0 0.00 0.00 0.00 76 1014.4
20260505064424 15 54 0.0 0.0 0.00 0.00 0.00 76 1014.4
20260505062936 15 54 0.0 0.0 0.00 0.00 0.00 75 1014.5
20260505061449 15 54 0.0 0.0 0.00 0.00 0.00 74 1014.6
20260505055940 15 54 0.0 0.0 0.00 0.00 0.00 73 1014.8
20260505054446 16 54 0.0 0.0 0.00 0.00 0.00 72 1014.9
20260505052928 16 54 0.0 0.0 0.00 0.00 0.00 71 1014.9
20260505051447 16 54 0.0 0.0 0.00 0.00 0.00 71 1015.0
20260505041418 17 54 0.0 0.0 0.00 0.00 0.00 67 1015.1
20260505035933 17 54 0.0 0.0 0.00 0.00 0.00 67 1015.1
20260505034418 17 54 0.0 3.2 0.00 0.00 0.00 66 1015.1
20260505032915 17 54 1.6 3.2 0.00 0.00 0.00 66 1015.2
20260505031441 17 15 0.0 3.2 0.00 0.00 0.00 65 1015.1
20260505025928 18 15 0.0 1.6 0.00 0.00 0.00 64 1015.2
20260505024421 18 6 0.0 0.0 0.00 0.00 0.00 64 1015.2
20260505022953 18 7 0.0 0.0 0.00 0.00 0.00 64 1015.1
20260505021443 18 19 0.0 0.0 0.00 0.00 0.00 62 1014.9
20260505015953 18 19 0.0 0.0 0.00 0.00 0.00 61 1014.7
20260505014444 16 31 0.0 0.0 0.00 0.00 0.00 64 1014.6
20260505012931 17 34 0.0 0.0 0.00 0.00 0.00 64 1014.1
20260505011418 17 34 0.0 0.0 0.00 0.00 0.00 62 1014.0
20260505005947 18 34 0.0 0.0 0.00 0.00 0.00 58 1013.9
20260505004423 19 34 0.0 0.0 0.00 0.00 0.00 52 1013.7
20260505003000 20 34 0.0 0.0 0.00 0.00 0.00 48 1013.5
20260505001505 21 34 0.0 0.0 0.00 0.00 0.00 44 1013.4
20260504235934 21 34 0.0 0.0 0.00 0.00 0.00 43 1013.2
20260504234426 22 34 0.0 0.0 0.00 0.00 0.00 43 1013.0
20260504232936 22 33 0.0 0.0 0.00 0.00 0.00 43 1013.0
20260504231420 23 33 0.0 0.0 0.00 0.00 0.00 41 1013.0
20260504225938 23 33 0.0 0.0 0.00 0.00 0.00 40 1013.0
20260504224442 24 33 0.0 3.2 0.00 0.00 0.00 37 1012.9
20260504222939 25 45 0.0 3.2 0.00 0.00 0.00 37 1012.9
20260504221417 25 85 0.0 11.3 0.00 0.00 0.00 35 1012.9
20260504215948 25 359 0.0 6.4 0.00 0.00 0.00 35 1012.8
20260504214426 26 29 0.0 8.0 0.00 0.00 0.00 33 1012.7
20260504212929 26 86 0.0 4.8 0.00 0.00 0.00 31 1012.9
20260504211446 27 10 0.0 6.4 0.00 0.00 0.00 31 1012.9
20260504210003 26 129 0.0 3.2 0.00 0.00 0.00 33 1012.9
20260504204431 26 41 0.0 6.4 0.00 0.00 0.00 32 1013.0
20260504202922 27 44 0.0 1.6 0.00 0.00 0.00 35 1013.1
20260504201417 26 252 0.0 1.6 0.00 0.00 0.00 35 1013.4
20260504195927 27 51 0.0 1.6 0.00 0.00 0.00 30 1013.5
20260504194427 27 20 0.0 4.8 0.00 0.00 0.00 31 1013.6
20260504192921 27 97 0.0 3.2 0.00 0.00 0.00 35 1014.0
20260504191440 26 22 0.0 6.4 0.00 0.00 0.00 31 1014.1
20260504185930 26 28 0.0 4.8 0.00 0.00 0.00 34 1014.5
20260504184426 26 52 0.0 4.8 0.00 0.00 0.00 34 1014.7
20260504182931 26 195 0.0 6.4 0.00 0.00 0.00 41 1015.0
20260504181435 25 226 3.2 12.9 0.00 0.00 0.00 33 1015.0
20260504175923 25 3 0.0 1.6 0.00 0.00 0.00 33 1015.1
20260504174433 24 329 1.6 9.7 0.00 0.00 0.00 37 1015.2
20260504172929 24 133 0.0 4.8 0.00 0.00 0.00 36 1015.3
20260504171423 24 313 0.0 11.3 0.00 0.00 0.00 35 1015.6